Le nostre stazioni meteo in Italia

Pubblicità
Il mio iltempo24.it
Cervia, Italia (16148): Temperatura & dewpoint: 07.12.2018 22:00:00 - 13.12.2018 22:00:00 (CET)Cervia, Italia (16148): velocità del vento: 07.12.2018 22:00:00 - 13.12.2018 22:00:00 (CET)Cervia, Italia (16148): direzione del vento: 07.12.2018 22:00:00 - 13.12.2018 22:00:00 (CET)Cervia, Italia (16148): reduced air pressure: 07.12.2018 22:00:00 - 13.12.2018 22:00:00 (CET)Cervia, Italia (16148): visibility: 07.12.2018 22:00:00 - 13.12.2018 22:00:00 (CET)Cervia, Italia (16148): ore di luce: 07.12.2018 22:00:00 - 13.12.2018 22:00:00 (CET)
Data & Tempo tt [°C] td [°C] ff [km/h] ff [kn] dd ppp [hPa] vv [km] sd [min]
13.12.2018 22:00:00 4,0 2,2 13 7 OSO 1013,7 10 -
13.12.2018 21:00:00 4,0 2,0 13 7 O - 10 -
13.12.2018 20:00:00 4,0 2,0 22 12 O - 10 -
13.12.2018 19:00:00 4,0 2,4 24 13 ONO 1012,7 12 -
13.12.2018 18:00:00 5,0 3,0 11 6 ONO - 10 -
13.12.2018 17:00:00 5,0 3,0 13 7 ONO - 10 -
13.12.2018 16:00:00 4,3 2,8 34 18 O 1011,7 12 0
13.12.2018 15:00:00 3,0 2,0 28 15 O - 8 -
13.12.2018 14:00:00 3,0 2,0 28 15 O - 6 -
13.12.2018 13:00:00 2,7 2,1 26 14 O 1013,3 8 0
13.12.2018 12:00:00 3,0 2,0 24 13 O - 8 -
13.12.2018 11:00:00 2,0 2,0 18 10 O - 7 -
13.12.2018 10:00:00 2,1 1,1 21 11 O 1015,3 10 0
13.12.2018 09:00:00 2,0 0,0 22 12 ONO - 10 -
13.12.2018 08:00:00 2,0 0,0 15 8 O - 10 -
13.12.2018 07:00:00 2,3 -0,5 13 7 ONO 1015,8 10 -
13.12.2018 06:00:00 2,0 0,0 11 6 O - 10 -
13.12.2018 05:00:00 2,0 0,0 9 5 ONO - 10 -
13.12.2018 04:00:00 1,8 0,2 8 4 ONO 1017,0 10 -
13.12.2018 03:00:00 1,0 0,0 11 6 O - 10 -
13.12.2018 02:00:00 1,0 -1,0 11 6 ONO - 10 -
13.12.2018 01:00:00 1,1 -0,4 4 2 S 1018,0 15 -
13.12.2018 00:00:00 1,0 0,0 4 2 O - 10 -
12.12.2018 23:00:00 1,0 -1,0 8 4 O - 10 -
12.12.2018 22:00:00 0,6 -1,0 4 2 OSO 1018,9 15 -
12.12.2018 21:00:00 0,0 -1,0 4 2 O - 10 -
12.12.2018 20:00:00 0,0 -2,0 8 4 O - 10 -
12.12.2018 19:00:00 1,0 -1,2 8 4 SO 1019,3 20 -
12.12.2018 18:00:00 3,0 -1,0 2 1 NNE - 10 -
12.12.2018 17:00:00 5,0 -2,0 2 1 O - 10 -
12.12.2018 16:00:00 7,0 -2,7 5 3 NO 1019,3 30 60
12.12.2018 15:00:00 8,0 -3,0 5 3 NNO - 10 -
12.12.2018 14:00:00 8,0 -3,0 8 4 NO - 10 -
12.12.2018 13:00:00 7,0 -2,7 9 5 ONO 1020,2 30 60
12.12.2018 12:00:00 6,0 -1,0 13 7 ONO - 10 -
12.12.2018 11:00:00 5,0 1,0 8 4 O - 10 -
12.12.2018 10:00:00 3,0 -1,9 4 2 OSO 1020,7 30 60
12.12.2018 09:00:00 -1,0 -4,0 4 2 SSO - 10 -
12.12.2018 08:00:00 -3,0 -5,0 4 2 ONO - 10 -
12.12.2018 07:00:00 -1,8 -3,7 5 3 OSO 1020,0 20 0
12.12.2018 06:00:00 -2,0 -3,0 5 3 SO - 10 -
12.12.2018 05:00:00 -1,0 -2,0 9 5 O - 10 -
12.12.2018 04:00:00 -1,0 -1,7 11 6 OSO 1019,9 20 -
12.12.2018 03:00:00 -1,0 -1,0 5 3 O - 10 -
12.12.2018 02:00:00 -1,0 -1,0 9 5 ONO - 10 -
12.12.2018 01:00:00 -0,4 -0,4 4 2 OSO 1019,9 20 -
12.12.2018 00:00:00 -1,0 -1,0 4 2 OSO - 10 -
11.12.2018 23:00:00 1,0 0,0 4 2 SSO - 10 -
11.12.2018 22:00:00 1,0 -0,3 5 3 OSO 1019,7 20 -
11.12.2018 21:00:00 3,0 1,0 8 4 SO - 10 -
11.12.2018 20:00:00 3,0 1,0 13 7 SO - 10 -
11.12.2018 19:00:00 3,9 1,8 9 5 SO 1019,7 20 -
11.12.2018 18:00:00 4,0 1,0 5 3 OSO - 10 -
11.12.2018 17:00:00 7,0 2,0 5 3 O - 10 -
11.12.2018 16:00:00 10,0 1,9 4 2 NO 1018,8 20 60
11.12.2018 15:00:00 10,0 1,0 13 7 NNO - 10 -
11.12.2018 14:00:00 11,0 1,0 13 7 ONO - 10 -
11.12.2018 13:00:00 10,0 0,1 13 7 ONO 1018,7 20 60
11.12.2018 12:00:00 9,0 1,0 18 10 ONO - 10 -
11.12.2018 11:00:00 7,0 0,0 16 9 ONO - 10 -
11.12.2018 10:00:00 5,6 0,2 18 10 O 1019,0 20 60
11.12.2018 09:00:00 3,0 -1,0 15 8 O - 10 -
11.12.2018 08:00:00 2,0 -2,0 9 5 O - 10 -
11.12.2018 07:00:00 2,0 -2,1 9 5 O 1017,6 20 0
11.12.2018 06:00:00 0,0 -2,0 13 7 O - 10 -
11.12.2018 05:00:00 0,0 -2,0 8 4 O - 10 -
11.12.2018 04:00:00 0,4 -1,4 8 4 O 1016,8 20 -
11.12.2018 03:00:00 2,0 0,0 8 4 O - 10 -
11.12.2018 02:00:00 2,0 -1,0 8 4 O - 10 -
11.12.2018 01:00:00 2,0 -0,8 5 3 O 1017,2 20 -
11.12.2018 00:00:00 3,0 0,0 9 5 NO - 10 -
10.12.2018 23:00:00 3,0 -2,0 13 7 N - 10 -
10.12.2018 22:00:00 5,0 -1,4 13 7 O 1016,9 20 -
10.12.2018 21:00:00 7,0 -1,0 16 9 O - 10 -
10.12.2018 20:00:00 8,0 1,0 15 8 O - 10 -
10.12.2018 19:00:00 7,8 1,6 9 5 O 1016,2 10 -
10.12.2018 18:00:00 8,0 2,0 8 4 O - 10 -
10.12.2018 17:00:00 10,0 1,0 15 8 ONO - 10 -
10.12.2018 16:00:00 12,4 1,7 16 9 ONO 1015,6 20 48
10.12.2018 15:00:00 13,0 1,0 24 13 ONO - 10 -
10.12.2018 14:00:00 14,0 0,0 31 17 ONO - 10 -
10.12.2018 13:00:00 13,6 1,6 26 14 ONO 1014,5 30 60
10.12.2018 12:00:00 13,0 2,0 22 12 NO - 10 -
10.12.2018 11:00:00 12,0 2,0 22 12 ONO - 10 -
10.12.2018 10:00:00 9,6 1,5 22 12 ONO 1013,7 30 60
10.12.2018 09:00:00 9,0 2,0 22 12 ONO - 10 -
10.12.2018 08:00:00 6,0 2,0 16 9 ONO - 10 -
10.12.2018 07:00:00 3,0 -0,1 5 3 O 1011,1 20 0
10.12.2018 06:00:00 5,0 1,0 5 3 NO - 10 -
10.12.2018 05:00:00 5,0 1,0 8 4 ONO - 10 -
10.12.2018 04:00:00 10,1 0,2 26 14 O 1009,4 20 -
10.12.2018 03:00:00 10,0 0,0 24 13 O - 10 -
10.12.2018 02:00:00 9,0 0,0 18 10 O - 10 -
10.12.2018 01:00:00 8,4 -0,4 21 11 O 1009,1 20 -
10.12.2018 00:00:00 8,0 1,0 15 8 OSO - 10 -
09.12.2018 23:00:00 8,0 3,0 18 10 OSO - 10 -
09.12.2018 22:00:00 4,1 2,4 8 4 SSO 1008,5 20 -
09.12.2018 21:00:00 4,0 3,0 9 5 OSO - 10 -
09.12.2018 20:00:00 4,0 2,0 8 4 SSO - 10 -
09.12.2018 19:00:00 5,2 3,2 2 1 E 1008,4 10 -
09.12.2018 18:00:00 7,0 5,0 15 8 OSO - 10 -
09.12.2018 17:00:00 7,0 6,0 11 6 O - 5 -
09.12.2018 16:00:00 8,0 6,5 13 7 O 1007,9 7 24
09.12.2018 15:00:00 10,0 7,0 21 11 NO - 10 -
09.12.2018 14:00:00 11,0 7,0 18 10 NO - 10 -
09.12.2018 13:00:00 14,4 7,9 22 12 NO 1005,5 20 60
09.12.2018 12:00:00 16,0 8,0 39 21 OSO - 10 -
09.12.2018 11:00:00 15,0 8,0 28 15 OSO - 10 -
09.12.2018 10:00:00 15,0 8,3 28 15 OSO 1006,8 20 60
09.12.2018 09:00:00 13,0 8,0 18 10 OSO - 10 -
09.12.2018 08:00:00 12,0 6,0 5 3 SSO - 10 -
09.12.2018 07:00:00 9,8 4,2 13 7 SSO 1009,2 20 -
09.12.2018 06:00:00 9,0 4,0 11 6 SO - 10 -
09.12.2018 05:00:00 7,0 2,0 15 8 SO - 10 -
09.12.2018 04:00:00 4,9 -0,5 13 7 SSO 1012,8 15 -
09.12.2018 03:00:00 5,0 -1,0 15 8 SSO - 10 -
09.12.2018 02:00:00 4,0 -1,0 15 8 SSO - 10 -
09.12.2018 01:00:00 4,1 -0,7 13 7 SSO 1015,0 15 -
09.12.2018 00:00:00 4,0 0,0 13 7 SSO - 10 -
08.12.2018 23:00:00 4,0 1,0 15 8 SSO - 10 -
08.12.2018 22:00:00 4,2 1,6 4 2 S 1015,9 15 -
08.12.2018 21:00:00 4,0 2,0 9 5 SSO - 10 -
08.12.2018 20:00:00 5,0 3,0 8 4 ESE - 10 -
08.12.2018 19:00:00 6,1 4,4 8 4 S 1015,3 15 -
08.12.2018 18:00:00 7,0 5,0 8 4 S - 10 -
08.12.2018 17:00:00 9,0 6,0 5 3 ESE - 10 -
08.12.2018 16:00:00 11,0 6,5 2 1 NNO 1014,4 12 60
08.12.2018 15:00:00 11,0 6,0 5 3 NNE - 10 -
08.12.2018 14:00:00 11,0 6,0 13 7 ONO - 10 -
08.12.2018 13:00:00 10,1 6,1 18 10 ONO 1014,0 8 60
08.12.2018 12:00:00 9,0 6,0 22 12 ONO - 6 -
08.12.2018 11:00:00 8,0 6,0 22 12 ONO - 5 -
08.12.2018 10:00:00 7,4 5,2 18 10 ONO 1011,7 12 0
08.12.2018 09:00:00 7,0 5,0 18 10 ONO - 10 -
08.12.2018 08:00:00 7,0 5,0 24 13 O - 10 -
08.12.2018 07:00:00 6,8 4,8 28 15 O 1009,6 8 -
08.12.2018 06:00:00 8,0 6,0 26 14 ONO - 7 -
08.12.2018 05:00:00 10,0 7,0 8 4 SSE - 10 -
08.12.2018 04:00:00 9,8 7,4 8 4 SSE 1008,0 10 -
08.12.2018 03:00:00 9,0 7,0 5 3 ESE - 10 -
08.12.2018 02:00:00 8,0 6,0 9 5 SSO - 8 -
08.12.2018 01:00:00 8,0 5,6 8 4 S 1011,7 6 -
08.12.2018 00:00:00 7,0 5,0 5 3 S - 3,0 -
07.12.2018 23:00:00 7,0 5,0 5 3 S - 2,5 -
07.12.2018 22:00:00 7,0 5,0 5 3 ESE 1015,0 2,0 -

tt = Temperatura
td = dewpoint
ff = velocità del vento
dd = direzione del vento
ppp = reduced air pressure
vv = visibility
sd = ore di luce

Stazioni seguenti

WeatherPro
AMSI
MeteoEarth